Location: Unspecified
(42.3650°N, 71.1030°W)
Time: 15:52:44
(UTC+00:00)

S-56A Canister/Altair - Pass Details

Date: 01 July 2024
Orbit: 638 x 2487 km, 38.9° (Epoch: 20 July)

Event Time Altitude Azimuth Distance (km) Brightness Sun altitude
Rises 00:49:45 0° 259° (W) 3,620 11.7 -4.5°
Reaches altitude 10° 00:51:59 10° 257° (WSW) 2,853 11.1 -4.9°
Maximum altitude 00:58:59 71° 175° (S) 1,447 8.8 -5.9°
Drops below altitude 10° 01:09:49 10° 94° (E) 4,287 10.9 -7.4°
Sets 01:13:53 0° 93° (E) 5,546 11.4 -8.0°
